Location: Berlise
(49.6641°N, 4.1077°E)
Time: 02:32:01
(UTC+00:00)

CZ-2C R/B - Pass Details

Date: 27 January 2021
Orbit: 668 x 784 km, 98.2° (Epoch: 28 February)

Event Time Altitude Azimuth Distance (km) Brightness Sun altitude
Rises 04:40:38 0° 8° (N) 3,277 5.9 -26.1°
Reaches altitude 10° 04:43:06 10° 360° (N) 2,350 5.0 -25.7°
Enters shadow 04:44:43 19° 349° (N) 1,807 4.3 -25.4°
